Regional Weather Roundup
Issued by NWS

Home | Current Version | Previous Version | Graphics & Text | Print | Product List | Glossary On
Versions: 1 2 3 4 5 6 7 8 9 10 11 12 13 14 15 16 17 18 19 20 21 22 23 24 25 26 27 28 29 30 31 32 33 34 35 36 37 38 39 40 41 42 43 44 45 46 47 48 49 50
000
ASUS43 KBIS 032210
RWRND

NORTH DAKOTA REGIONAL WEATHER ROUNDUP
NATIONAL WEATHER SERVICE BISMARCK ND
500 PM CDT TUE MAY 03 2016

NOTE: "FAIR" INDICATES FEW OR NO CLOUDS BELOW 12,000 FEET WITH NO
SIGNIFICANT WEATHER AND/OR OBSTRUCTIONS TO VISIBILITY.


NDZ001>003-009>011-017-032300-
NORTHWEST NORTH DAKOTA

CITY           SKY/WX    TMP DP  RH WIND       PRES   REMARKS
WILLISTON      SUNNY     81  39  22 N10       30.03S
MINOT          SUNNY     79  28  15 N18G29    29.99F
MINOT AFB      SUNNY     74  32  21 N16G25    29.98F
$$

NDZ018>021-031>035-040>046-032300-
SOUTHWEST NORTH DAKOTA

CITY           SKY/WX    TMP DP  RH WIND       PRES   REMARKS
BISMARCK       SUNNY     75  35  23 N18G28    29.97S
DICKINSON      SUNNY     76  35  22 N16G28    30.02F
GARRISON         N/A     75  34  22 N22G32    29.99F
HETTINGER ARPT SUNNY     76  35  22 NW10      30.04F
$$

NDZ004>008-012>016-024-026-027-054-032300-
NORTHEAST NORTH DAKOTA

CITY           SKY/WX    TMP DP  RH WIND       PRES   REMARKS
GRAND FORKS    SUNNY     66  31  27 N23G39    29.89S
GRND FRKS AFB  SUNNY     66  29  24 N26G33    29.91S
DEVILS LAKE    SUNNY     67  23  19 N25G36    29.96S
$$

NDZ022-023-025-028>030-036>039-047>053-032300-
SOUTHEAST NORTH DAKOTA

CITY           SKY/WX    TMP DP  RH WIND       PRES   REMARKS
FARGO          SUNNY     69  27  20 N32G40    29.86R
JAMESTOWN      SUNNY     69  27  20 N26G33    29.92S
$$




USA.gov is the U.S. government's official web portal to all federal, state and local government web resources and services.